Terug naar catalogus

AMOS 3

ActiefCommunicatieGEO
NORAD 32794·PAYLOAD·🇮🇱 Israel

Gelanceerd Apr 28, 2008 vanaf Baikonur Cosmodrome

Loading…

TLE

VersSource: Space-Track

Epoch: Sep 14, 2026, 14:10 UTC

1 32794U 08022A   26257.59061441 -.00000124  00000-0  00000-0 0  9997
2 32794   0.6796  84.7404 0002173  45.7971 153.6549  1.00272906 83234

Volg AMOS 3 in realtime met AllMySat

Download on the App Store